Location: Observatoire de Paris
(48.8363°N, 2.3365°E)
Time: 13:29:56
(UTC+01:00)

Tiros 1 - Visible Passes

Search period start: 04 August 2021 00:00
Search period end: 14 August 2021 00:00
Orbit: 630 x 664 km, 48.4° (Epoch: 03 August)

Date Brightness Start Highest point End Pass type
(mag) Time Alt. Az. Time Alt. Az. Time Alt. Az.
04 Aug 7.3 22:04:27 10° W 22:09:09 59° SSW 22:11:50 24° SE visible
04 Aug 8.9 23:47:13 10° W 23:49:28 19° WSW 23:49:28 19° WSW visible
05 Aug 7.2 20:48:12 10° W 20:52:59 80° S 20:57:43 10° ESE visible
05 Aug 7.9 22:30:31 10° W 22:34:54 38° SSW 22:36:18 31° S visible
06 Aug 7.3 21:14:10 10° W 21:18:53 62° SSW 21:23:09 12° ESE visible
06 Aug 8.6 22:56:51 10° W 23:00:30 22° SW 23:00:47 22° SSW visible
07 Aug 7.9 21:40:13 10° W 21:44:40 40° SSW 21:47:42 18° SSE visible
07 Aug 9.5 23:24:22 10° WSW 23:25:20 11° SW 23:25:20 11° SW visible
08 Aug 8.7 22:06:30 10° W 22:10:17 24° SW 22:12:17 18° S visible
09 Aug 7.9 20:49:55 10° W 20:54:26 43° SSW 20:58:53 10° SE visible
09 Aug 9.3 22:33:43 10° WSW 22:35:44 13° SW 22:36:55 12° SSW visible
10 Aug 8.7 21:16:09 10° W 21:20:04 25° SW 21:23:56 10° SSE visible
11 Aug 9.4 21:43:10 10° WSW 21:45:31 14° SW 21:47:53 10° SSW visible
13 Aug 9.5 20:52:39 10° WSW 20:55:19 15° SW 20:57:57 10° S visible
